Weather in Mostovoe

Ukraine / Mykolaiv District     47°25′01″N   30°59′17″E
temp.,
°C
wind,
m/s
gust,
m/s
humid.,
%
clouds,
%
prec.,
mm/h
press.,
hPa
HPBL,
m
19 january, tue
tue1923:00−13nw368589 0.0 1022327
02:00−13wnw358392 0.0 1023371
05:00−14wnw478285 0.0 1022428
08:00−14nw268351 0.0 1023441
11:00−12wnw356824 0.0 1024574
14:00−10wnw456750 0.0 1022636
17:00−11wnw22760 0.0 102321
20:00−11sw11760 0.0 102321
20 january, wed
wed2023:00−11s11730 0.0 102321
02:00−11s22770 0.0 102321
05:00−11se23800 0.0 102334
08:00−11se358044 0.0 1024136
11:00−7se467771 0.0 1024266
14:00−5se578244 0.0 1022325
17:00−7ese479575 0.0 1023165
20:00−7se5109580 0.0 1023220
21 january, thu
thu2123:00−5se489797 0.0 1024245
02:00−4se589799 0.0 1023209
05:00−3se4898100 0.0 1022210
08:00−1se5898100 0.0 1023227
11:00+1sse479275 0.0 1022310
14:00+4sse488554 0.0 1021417
17:00+1s47930 0.0 1021103
20:000s47940 0.0 1021141
22 january, fri
fri2223:000s48900 0.0 1020150
02:000s510870 0.0 1020196
05:000ssw511920 0.0 1019211
08:00+1s5129835 0.0 1019225
11:00+5s6118975 0.0 1018410
14:00+7s6108078 0.0 1016414
17:00+4s61396100 0.0 1015316
20:00+4s7139699 0.0 1014336
23 january, sat
sat2323:00+5s7139696 0.0 1013359
02:00+5s7129798 0.0 1012358
05:00+3s6129499 0.0 1011261
08:00+3s5119399 0.0 1012250
11:00+6s61089100 0.0 1011319
14:00+8s5888100 0.0 1011381
17:00+6sse5109284 0.0 1010218
20:00+6s7149691 0.0 1010379